Regional Weather Roundup
Issued by NWS Jackson, KY

Home | Current Version | Previous Version | Text Only | Print | Product List | Glossary Off
Versions: 1 2 3 4 5 6 7 8 9 10 11 12 13 14 15 16 17 18 19 20 21 22 23 24 25 26 27

000
ASUS43 KJKL 052210
RWRJKL

EAST KENTUCKY HOURLY WEATHER ROUNDUP
NATIONAL WEATHER SERVICE JACKSON KY
600 PM EDT THU MAY 05 2016

NOTE: "FAIR" INDICATES FEW OR NO CLOUDS BELOW 12,000 FEET WITH
NO SIGNIFICANT WEATHER AND/OR OBSTRUCTIONS TO VISIBILITY.

* THESE REPORTS ARE NOT UNDER NWS QUALITY CONTROL AND MAY NOT
  REPORT WEATHER SUCH AS PRECIPITATION AND FOG.

KYZ079-080-083-085-087-088-110-112-115-119-120-052300
...EASTERN KENTUCKY...

CITY           SKY/WX    TMP DP  RH WIND       PRES   REMARKS
JACKSON        CLOUDY    51  39  63 NW8       29.82R
LONDON         CLOUDY    51  37  58 NW9       29.85S
SOMERSET*      CLOUDY    52  36  54 NW8       29.89S
MONTICELLO*    CLOUDY    53  40  61 N16G24    29.90S
WILLIAMSBURG*  CLOUDY    50  39  66 NW9       29.87R
MIDDLESBORO*   CLOUDY    52  42  68 NW9       29.84R
HARLAN APT*    CLOUDY    50  37  62 W8        29.82R
HAZARD APT*    CLOUDY    52  39  62 NW6       29.82R
BLACK MTN*       N/A     37  37 100 N5          N/A  WCI  34
PIKE CO APT*   LGT RAIN  49  41  73 W8        29.78S
BIG SANDY APT* CLOUDY    53  41  64 NW9       29.78S
MOREHEAD APT*  CLOUDY    54  43  66 N8        29.85S
$$

KYZ035-036-041-042-044-050-067-078-099-052300
...CENTRAL KENTUCKY...

CITY           SKY/WX    TMP DP  RH WIND       PRES   REMARKS
MT STERLING*   CLOUDY    54  43  66 N12G18    29.86S
FLEMING/MASON* CLOUDY    51  44  75 NW9       29.85F
DANVILLE*      CLOUDY    52  41  66 NW13G18   29.88S
RICHMOND*      CLOUDY    52  39  62 NW10      29.86R
LEXINGTON      CLOUDY    52  43  71 NW10      29.88R
FRANKFORT      CLOUDY    53  43  68 NW10      29.88S
LOUISVILLE     PTSUNNY   57  44  62 N7        29.91S
LEBANON*       CLOUDY    52  43  71 NW13G20   29.91R
BOWLING GREEN  CLOUDY    58  42  55 N10G20    29.93R
$$

KYZ091>093-OHZ055-061-077-WVZ005-015-034-035-042-052300
...SOUTHERN OHIO/WEST VIRGINIA...

CITY           SKY/WX    TMP DP  RH WIND       PRES   REMARKS
COVINGTON      PTSUNNY   55  47  74 W6        29.86S
COLUMBUS       MOSUNNY   59  44  57 N18G24    29.79R
DAYTON         MOSUNNY   62  41  46 N16G24    29.84F
WILMINGTON     MOSUNNY   58  45  62 N15G23    29.82F
HUNTINGTON     CLOUDY    54  43  66 NW12G21   29.78R
CHARLESTON     CLOUDY    49  45  86 SW7       29.74S
PINEVILLE*     DRIZZLE   45  41  86 MISG      29.80S
BECKLEY        LGT RAIN  42  40  92 NW8       29.72S
$$

VAZ002-007-008-TNZ017-027-036-066-071-052300
...SOUTHWEST VIRGINIA/EAST TENNESSEE...

CITY           SKY/WX    TMP DP  RH WIND       PRES   REMARKS
WISE*          LGT RAIN  43  39  87 NW5       29.79R
BRISTOL        LGT RAIN  52  38  58 N14G20    29.76R
MORRISTOWN*    PTCLDY    54  41  62 N13G21    29.78R
SEVIERVILLE*   MOCLDY    52  45  76 VRB6      29.80R
KNOXVILLE      PTSUNNY   53  41  63 N9        29.82R
OAK RIDGE      PTSUNNY   54  38  54 N10G17    29.86R
CROSSVILLE     CLOUDY    49  38  65 N13G23    29.88R
NASHVILLE      PTSUNNY   60  39  45 NW14G21   29.92S
$$

...KEY TO REMARKS...
VSB - VISIBILITY IN MILES
WCI - WIND CHILL INDEX
HX  - HEAT INDEX

$$




USA.gov is the U.S. government's official web portal to all federal, state and local government web resources and services.